Погода в Париже

Франция     48°51′23″N   2°21′05″E
темп.,
°C
ветер,
м/с
пор.,
м/с
влажн.,
%
обл.,
%
осадки,
мм/ч
давл.,
гПа
погр.,
м
23 мая, пн
пн2323:00+19всв2762100 0.0 1008280
02:00+16всв2681100 0.4 1005184
05:00+15ююв41098100 5.4 1003284
08:00+16ю389559 6.4 1002359
11:00+17ююз4995100 2.2 1001772
14:00+16з5796100 4.8 1001682
17:00+14з51189100 0.3 1003595
20:00+16зюз3676100 0.4 1004851
24 мая, вт
вт2423:00+13з389273 1.1 1006701
02:00+11юз389598 1.7 1006504
05:00+10юз4109519 0.1 1007455
08:00+10юз499019 0.1 1009466
11:00+14зюз576464 0.0 10101068
14:00+18зюз574168 0.0 10102221
17:00+18з464093 0.0 10102133
20:00+17з355212 0.0 1011961
25 мая, ср
ср2523:00+13зсз23715 0.0 101475
02:00+12зсз24780 0.0 1015122
05:00+10зсз25800 0.0 1016167
08:00+11з247386 0.0 1018256
11:00+16зюз355054 0.0 10191205
14:00+19зюз46417 0.0 10191951
17:00+20зюз5642100 0.0 10182158
20:00+18з475798 0.0 10191145
26 мая, чт
чт2623:00+16зюз3767100 0.0 1021721
02:00+15зсз367462 0.0 1022705
05:00+12з37860 0.0 1023357
08:00+13зсз35790 0.0 1024336
11:00+18зсз235558 0.0 10251014
14:00+21зсз3343100 0.0 10251322
17:00+21з3347100 0.0 10241305
20:00+20зсз3460100 0.0 1024809
27 мая, пт
пт2723:00+17сз37760 0.0 1025315
02:00+14зсз278063 0.0 1025305
05:00+12з378125 0.0 1025271
08:00+13зсз367834 0.0 1025309
11:00+18сз356497 0.0 1025987
14:00+19сз4566100 0.1 10251189
17:00+19сз3563100 0.1 10251248
20:00+19ссз3459100 0.1 10251179